Погода в Сухом Отроге

Россия / Саратовская область     51°53′11″N   48°11′34″E
темп.,
°C
ветер,
м/с
пор.,
м/с
влажн.,
%
обл.,
%
осадки,
мм/ч
давл.,
гПа
погр.,
м
11 апреля, вс
вс1101:00+12в2386100 0.0 101929
04:00+11ююв3385100 0.0 102132
07:00+11юв2282100 0.0 102328
10:00+15юв3860100 0.0 1024403
13:00+20ююв4645100 0.0 1025994
16:00+22ююв3543100 0.0 10251328
19:00+17в3562100 0.0 102679
22:00+14в3771100 0.0 102797
12 апреля, пн
пн1201:00+12в237580 0.0 102825
04:00+11всв227552 0.0 102916
07:00+10вюв457326 0.0 103077
10:00+16вюв4552100 0.0 1031333
13:00+20вюв4542100 0.0 1031897
16:00+21вюв563749 0.0 10311465
19:00+17в475590 0.0 1031106
22:00+13вюв466889 0.0 103296
13 апреля, вт
вт1301:00+11вюв46745 0.0 103281
04:00+9вюв46675 0.0 103379
07:00+8в48685 0.0 1033146
10:00+14вюв564532 0.0 1033437
13:00+18юв56345 0.0 10321020
16:00+20юв56311 0.0 10311225
19:00+16вюв47475 0.0 1030112
22:00+11вюв49574 0.0 1031126
14 апреля, ср
ср1401:00+9вюв45612 0.0 103064
04:00+7в44655 0.0 103054
07:00+7в47685 0.0 1029132
10:00+13вюв56460 0.0 1029470
13:00+18вюв56345 0.0 10271056
16:00+19вюв67330 0.0 10251247
19:00+15вюв36495 0.0 1024103
22:00+12в46665 0.0 102482
15 апреля, чт
чт1501:00+10вюв34761 0.0 102350
04:00+9в35860 0.0 102264
07:00+9в34870 0.0 102290
10:00+15в34640 0.0 1021510
13:00+19в33460 0.0 10191319
16:00+20вюв33360 0.0 10181773
19:00+18вюв22450 0.0 101712
22:00+14в22570 0.0 101713